AWW61QH EGFF-EICK

Flight info

Callsign AWW61QH
Flight time 0h 42m
Altitude 30000
Route BCN P4 FELCA DCT NICXI DCT OFSOX DCT BANBA DCT VAPAL VAPAL1G
Aircraft A320/M-SDE3FGHIRWY/LB1

Departure

Time 2026-05-04 19:55
Airport Cardiff International Airport (EGFF)

Arrival

Time 2026-05-04 20:38
Airport Cork International Airport (EICK)
Time Latitude Longitude Altitude Speed Heading
2026-05-04 19:37 51.39766 -3.33834 222 ft 0 kts 81°
2026-05-04 19:47 51.39765 -3.33850 221 ft 4 kts 81°
2026-05-04 19:47 51.39761 -3.33893 221 ft 4 kts 81°
2026-05-04 19:47 51.39757 -3.33936 221 ft 4 kts 81°
2026-05-04 19:47 51.39754 -3.33960 221 ft 0 kts 81°
2026-05-04 19:50 51.39761 -3.33958 221 ft 1 kts
2026-05-04 19:50 51.39769 -3.34013 223 ft 12 kts 264°
2026-05-04 19:50 51.39786 -3.34144 223 ft 12 kts 297°
2026-05-04 19:50 51.39822 -3.34257 221 ft 11 kts 297°
2026-05-04 19:51 51.39850 -3.34346 224 ft 10 kts 297°
2026-05-04 19:51 51.39883 -3.34447 225 ft 11 kts 297°
2026-05-04 19:51 51.39913 -3.34541 224 ft 10 kts 297°
2026-05-04 19:52 51.39951 -3.34662 221 ft 14 kts 297°
2026-05-04 19:52 51.39994 -3.34800 224 ft 14 kts 296°
2026-05-04 19:52 51.40037 -3.34939 222 ft 14 kts 296°
2026-05-04 19:52 51.40081 -3.35077 220 ft 13 kts 297°
2026-05-04 19:53 51.40117 -3.35191 221 ft 10 kts 297°
2026-05-04 19:53 51.40148 -3.35293 220 ft 13 kts 291°
2026-05-04 19:53 51.40131 -3.35466 221 ft 16 kts 228°
2026-05-04 19:53 51.40058 -3.35534 219 ft 6 kts 197°
2026-05-04 19:54 51.40030 -3.35499 218 ft 0 kts 117°
2026-05-04 19:54 51.40023 -3.35476 221 ft 12 kts 117°
2026-05-04 19:54 51.39869 -3.34988 219 ft 86 kts 116°
2026-05-04 19:55 51.39501 -3.33813 224 ft 147 kts 116°
2026-05-04 19:55 51.39020 -3.32276 699 ft 156 kts 115°
2026-05-04 19:55 51.38539 -3.30711 1378 ft 160 kts 112°
2026-05-04 19:55 51.38048 -3.29092 2103 ft 157 kts 112°
2026-05-04 19:56 51.37550 -3.27442 2508 ft 176 kts 112°
2026-05-04 19:56 51.37003 -3.25555 2844 ft 199 kts 112°
2026-05-04 19:56 51.36394 -3.23390 3165 ft 227 kts 112°
2026-05-04 19:56 51.35703 -3.20980 3647 ft 249 kts 113°
2026-05-04 19:57 51.35117 -3.18324 4326 ft 260 kts 97°
2026-05-04 19:57 51.35218 -3.15436 5187 ft 264 kts 70°
2026-05-04 19:57 51.36151 -3.12889 5798 ft 269 kts 44°
2026-05-04 19:57 51.37721 -3.11331 5968 ft 268 kts 15°
2026-05-04 19:58 51.39564 -3.11265 6005 ft 267 kts 347°
2026-05-04 19:58 51.41363 -3.12008 6007 ft 267 kts 345°
2026-05-04 19:58 51.43175 -3.12788 6389 ft 271 kts 345°
2026-05-04 19:58 51.45002 -3.13610 7287 ft 274 kts 344°
2026-05-04 19:59 51.46856 -3.14470 8123 ft 280 kts 343°
2026-05-04 19:59 51.48750 -3.15352 8931 ft 287 kts 343°
2026-05-04 19:59 51.50688 -3.16249 9767 ft 292 kts 343°
2026-05-04 19:59 51.52658 -3.17157 10330 ft 307 kts 343°
2026-05-04 20:00 51.54789 -3.18141 10642 ft 329 kts 342°
2026-05-04 20:00 51.57022 -3.19174 11284 ft 337 kts 343°
2026-05-04 20:00 51.59295 -3.20218 12031 ft 342 kts 343°
2026-05-04 20:00 51.61596 -3.21269 12816 ft 346 kts 343°
2026-05-04 20:01 51.63928 -3.22336 13596 ft 350 kts 343°
2026-05-04 20:01 51.66255 -3.23405 14273 ft 354 kts 343°
2026-05-04 20:01 51.68636 -3.24535 14949 ft 357 kts 340°
2026-05-04 20:01 51.70896 -3.26240 15601 ft 360 kts 327°
2026-05-04 20:02 51.72890 -3.28693 16261 ft 362 kts 314°
2026-05-04 20:02 51.74524 -3.31788 16903 ft 364 kts 302°
2026-05-04 20:02 51.75828 -3.35305 17561 ft 366 kts 298°
2026-05-04 20:02 51.77112 -3.38877 18212 ft 370 kts 298°
2026-05-04 20:03 51.78398 -3.42450 18749 ft 375 kts 298°
2026-05-04 20:03 51.79720 -3.46119 19280 ft 379 kts 298°
2026-05-04 20:03 51.81056 -3.49818 19854 ft 382 kts 298°
2026-05-04 20:03 51.82265 -3.53638 20434 ft 382 kts 289°
2026-05-04 20:04 51.83045 -3.57750 21018 ft 382 kts 279°
2026-05-04 20:04 51.83582 -3.61970 21613 ft 384 kts 278°
2026-05-04 20:04 51.84125 -3.66214 22202 ft 387 kts 278°
2026-05-04 20:04 51.84674 -3.70486 22793 ft 389 kts 278°
2026-05-04 20:05 51.85232 -3.74787 23365 ft 392 kts 278°
2026-05-04 20:05 51.85793 -3.79118 23880 ft 395 kts 278°
2026-05-04 20:05 51.86357 -3.83494 24311 ft 398 kts 278°
2026-05-04 20:05 51.86915 -3.87858 24732 ft 401 kts 279°
2026-05-04 20:06 51.87481 -3.92309 25133 ft 406 kts 279°
2026-05-04 20:06 51.88053 -3.96819 25489 ft 410 kts 280°
2026-05-04 20:06 51.88628 -4.01366 25874 ft 414 kts 280°
2026-05-04 20:06 51.89208 -4.05959 26266 ft 417 kts 280°
2026-05-04 20:07 51.89787 -4.10526 26630 ft 420 kts 280°
2026-05-04 20:07 51.90376 -4.15188 27003 ft 424 kts 280°
2026-05-04 20:07 51.90964 -4.19887 27373 ft 427 kts 281°
2026-05-04 20:07 51.91552 -4.24627 27742 ft 430 kts 281°
2026-05-04 20:08 51.92141 -4.29409 28110 ft 432 kts 281°
2026-05-04 20:08 51.92725 -4.34158 28456 ft 436 kts 281°
2026-05-04 20:08 51.93316 -4.38988 28810 ft 438 kts 281°
2026-05-04 20:08 51.93913 -4.43856 29098 ft 442 kts 282°
2026-05-04 20:09 51.94516 -4.48766 29416 ft 446 kts 282°
2026-05-04 20:09 51.95120 -4.53703 29745 ft 449 kts 282°
2026-05-04 20:09 51.95728 -4.58684 29999 ft 451 kts 282°
2026-05-04 20:10 51.96919 -4.68533 30057 ft 432 kts 283°
2026-05-04 20:10 51.98044 -4.77976 30064 ft 426 kts 283°
2026-05-04 20:11 51.99158 -4.87425 30046 ft 426 kts 283°
2026-05-04 20:11 52.00279 -4.96897 30068 ft 430 kts 284°
2026-05-04 20:12 52.01408 -5.06440 30062 ft 431 kts 283°
2026-05-04 20:12 52.02510 -5.15998 30058 ft 431 kts 281°
2026-05-04 20:13 52.02504 -5.25762 30059 ft 435 kts 265°
2026-05-04 20:13 52.01816 -5.35466 30059 ft 435 kts 265°
2026-05-04 20:14 52.01129 -5.45241 30061 ft 435 kts 265°
2026-05-04 20:14 52.00435 -5.55024 30068 ft 436 kts 265°
2026-05-04 20:15 51.99733 -5.64791 30069 ft 436 kts 265°
2026-05-04 20:15 51.99017 -5.74560 30071 ft 435 kts 265°
2026-05-04 20:16 51.98294 -5.84274 30070 ft 435 kts 265°
2026-05-04 20:16 51.97564 -5.94035 30052 ft 436 kts 265°
2026-05-04 20:17 51.96829 -6.03803 30060 ft 438 kts 265°
2026-05-04 20:17 51.96080 -6.13639 30061 ft 440 kts 265°
2026-05-04 20:17 51.95700 -6.18553 29875 ft 436 kts 265°
2026-05-04 20:18 51.95322 -6.23389 29451 ft 430 kts 265°
2026-05-04 20:18 51.95000 -6.28177 29009 ft 425 kts 267°
2026-05-04 20:18 51.94777 -6.32922 28572 ft 420 kts 269°
2026-05-04 20:18 51.94611 -6.37625 28133 ft 415 kts 270°
2026-05-04 20:19 51.94467 -6.42211 27724 ft 411 kts 270°
2026-05-04 20:19 51.94317 -6.46827 27292 ft 408 kts 270°
2026-05-04 20:19 51.94153 -6.51403 26861 ft 404 kts 269°
2026-05-04 20:19 51.93972 -6.55942 26429 ft 401 kts 269°
2026-05-04 20:20 51.93778 -6.60436 26003 ft 398 kts 268°
2026-05-04 20:20 51.93578 -6.64898 25551 ft 396 kts 268°
2026-05-04 20:20 51.93375 -6.69346 25098 ft 394 kts 268°
2026-05-04 20:20 51.93173 -6.73756 24639 ft 392 kts 268°
2026-05-04 20:21 51.92973 -6.78155 24177 ft 391 kts 268°
2026-05-04 20:21 51.92777 -6.82543 23705 ft 390 kts 268°
2026-05-04 20:21 51.92386 -6.91213 22720 ft 384 kts 268°
2026-05-04 20:22 51.92188 -6.95529 22251 ft 381 kts 268°
2026-05-04 20:22 51.91989 -6.99799 21804 ft 379 kts 268°
2026-05-04 20:22 51.91789 -7.04033 21358 ft 376 kts 267°
2026-05-04 20:22 51.91590 -7.08247 20910 ft 374 kts 267°
2026-05-04 20:23 51.91395 -7.12432 20466 ft 371 kts 267°
2026-05-04 20:23 51.91203 -7.16547 20029 ft 369 kts 267°
2026-05-04 20:23 51.91004 -7.20744 19583 ft 367 kts 266°
2026-05-04 20:23 51.90806 -7.24815 19156 ft 366 kts 266°
2026-05-04 20:24 51.90603 -7.28911 18724 ft 364 kts 266°
2026-05-04 20:24 51.90402 -7.32988 18265 ft 363 kts 266°
2026-05-04 20:24 51.90202 -7.37049 17819 ft 360 kts 266°
2026-05-04 20:24 51.90002 -7.41074 17397 ft 357 kts 266°
2026-05-04 20:25 51.89802 -7.45070 16977 ft 354 kts 266°
2026-05-04 20:25 51.89604 -7.48992 16568 ft 351 kts 266°
2026-05-04 20:25 51.89402 -7.52926 16159 ft 349 kts 266°
2026-05-04 20:25 51.89198 -7.56838 15754 ft 347 kts 266°
2026-05-04 20:26 51.88995 -7.60730 15352 ft 345 kts 266°
2026-05-04 20:26 51.88795 -7.64555 14957 ft 343 kts 266°
2026-05-04 20:26 51.88593 -7.68407 14555 ft 341 kts 266°
2026-05-04 20:26 51.88392 -7.72229 14159 ft 339 kts 266°
2026-05-04 20:27 51.88192 -7.76023 13743 ft 338 kts 266°
2026-05-04 20:27 51.87896 -7.79780 13324 ft 335 kts 257°
2026-05-04 20:27 51.87093 -7.83245 12928 ft 333 kts 242°
2026-05-04 20:27 51.85768 -7.86306 12521 ft 331 kts 230°
2026-05-04 20:28 51.84298 -7.89157 12114 ft 328 kts 231°
2026-05-04 20:28 51.82841 -7.91991 11712 ft 326 kts 231°
2026-05-04 20:28 51.81397 -7.94799 11300 ft 324 kts 231°
2026-05-04 20:28 51.79962 -7.97593 10878 ft 322 kts 231°
2026-05-04 20:29 51.78536 -8.00373 10462 ft 320 kts 231°
2026-05-04 20:29 51.77117 -8.03138 10047 ft 319 kts 231°
2026-05-04 20:29 51.75703 -8.05883 9582 ft 317 kts 231°
2026-05-04 20:29 51.74314 -8.08567 9163 ft 314 kts 231°
2026-05-04 20:30 51.72921 -8.11257 8721 ft 311 kts 231°
2026-05-04 20:30 51.71540 -8.13924 8281 ft 309 kts 231°
2026-05-04 20:30 51.70171 -8.16572 7845 ft 306 kts 231°
2026-05-04 20:30 51.68807 -8.19208 7395 ft 304 kts 231°
2026-05-04 20:31 51.67457 -8.21819 7010 ft 300 kts 231°
2026-05-04 20:31 51.66140 -8.24376 6629 ft 292 kts 232°
2026-05-04 20:31 51.64877 -8.26834 6303 ft 277 kts 233°
2026-05-04 20:31 51.63695 -8.29135 5978 ft 261 kts 232°
2026-05-04 20:32 51.62562 -8.31377 5618 ft 257 kts 237°
2026-05-04 20:32 51.61988 -8.33999 5288 ft 245 kts 273°
2026-05-04 20:32 51.62499 -8.36440 4959 ft 224 kts 314°
2026-05-04 20:32 51.63751 -8.37686 4702 ft 206 kts 343°
2026-05-04 20:33 51.65110 -8.38359 4404 ft 204 kts 346°
2026-05-04 20:33 51.66013 -8.38796 4184 ft 205 kts 345°
2026-05-04 20:33 51.67820 -8.39713 3772 ft 203 kts 344°
2026-05-04 20:33 51.69145 -8.40420 3408 ft 197 kts 345°
2026-05-04 20:34 51.70004 -8.40862 3282 ft 186 kts 345°
2026-05-04 20:34 51.71562 -8.41721 2961 ft 170 kts 343°
2026-05-04 20:34 51.72283 -8.42138 2811 ft 162 kts 344°
2026-05-04 20:34 51.73297 -8.42730 2590 ft 148 kts 344°
2026-05-04 20:35 51.74224 -8.43273 2412 ft 136 kts 344°
2026-05-04 20:35 51.75096 -8.43785 2237 ft 132 kts 343°
2026-05-04 20:35 51.75951 -8.44287 2051 ft 130 kts 343°
2026-05-04 20:35 51.76798 -8.44789 1852 ft 129 kts 343°
2026-05-04 20:36 51.77640 -8.45302 1680 ft 130 kts 342°
2026-05-04 20:36 51.78486 -8.45807 1542 ft 129 kts 343°
2026-05-04 20:36 51.79332 -8.46283 1378 ft 129 kts 343°
2026-05-04 20:36 51.80187 -8.46765 1120 ft 130 kts 340°
2026-05-04 20:37 51.81029 -8.47279 1008 ft 129 kts 340°
2026-05-04 20:37 51.81876 -8.47783 824 ft 130 kts 340°
2026-05-04 20:37 51.82718 -8.48284 672 ft 130 kts 340°
2026-05-04 20:37 51.83563 -8.48775 517 ft 127 kts 340°
2026-05-04 20:38 51.84255 -8.49183 504 ft 70 kts 340°
2026-05-04 20:38 51.84494 -8.49323 504 ft 26 kts 340°
2026-05-04 20:38 51.84669 -8.49429 504 ft 23 kts 339°
2026-05-04 20:38 51.84770 -8.49434 504 ft 12 kts 52°
2026-05-04 20:39 51.84795 -8.49330 504 ft 4 kts 70°
2026-05-04 20:39 51.84795 -8.49327 504 ft 0 kts 70°
2026-05-04 20:40 51.84796 -8.49325 504 ft 2 kts 70°
2026-05-04 20:40 51.84803 -8.49291 504 ft 3 kts 70°
2026-05-04 20:40 51.84827 -8.49243 504 ft 8 kts 33°
2026-05-04 20:40 51.84866 -8.49187 504 ft 7 kts 67°
2026-05-04 20:41 51.84883 -8.49115 504 ft 6 kts 70°
2026-05-04 20:41 51.84888 -8.49090 504 ft 2 kts 70°
2026-05-04 20:41 51.84891 -8.49080 505 ft 0 kts 66°
2026-05-04 20:41 51.84892 -8.49078 504 ft 0 kts 68°
2026-05-04 20:42 51.84891 -8.49078 504 ft 0 kts 70°